sat.trackr.live / text

‹ back to catalog

STARLINK-36525

NORAD 67450 · 2026-008F

PAYLOAD ACTIVE UNKNOWN

§ Identity

Operator
Country
US
Launch date
2026-01-14
Launch site
AFETR
Launch vehicle
Mass (kg)
RCS (m²)

Purposes: comms

External: N2YO · Heavens-Above · Gunter

§ Orbital elements

Epoch: 2026-05-25T00:16:58.547136Z

Period
94.27 min
Inclination
42.9970°
Eccentricity
0.0001111
Mean motion
15.27595702 rev/d
Perigee alt
482.2 km
Apogee alt
483.8 km
Semi-major
6,861.1 km
B*
6.2593e-4
RAAN
134.2873°
Arg perigee
278.2663°
Mean anomaly
81.8063°
Rev number
2,124

§ Raw data

STARLINK-365251 67450U 26008F   26145.01178874  .00017010  00000+0  62593-3 0  99982 67450  42.9970 134.2873 0001111 278.2663  81.8063 15.27595702 21249

JSON: /api/v1/satellites/67450 · /tle

For live sub-satellite position, see the globe view (requires WebGL).

§ Visibility from observer

Set your observer location to see the next 7 days of passes ≥ 10°. The values pass through the URL so the page stays shareable.

No JS? Fill the form by hand. The geolocation button needs JavaScript.